#timestamp,LO_Frequency,Hit,StdDev 
1650506415.9,286047004.7,N
1650506435.7,286047008.7,Y
1650506455.6,286047001.6,P
1650506475.4,286046996.3,N
1650506495.2,286046995.9,N
1650506515.1,286046995.6,N
1650506516.0,286046995.6,N
1650506535.8,286046993.3,N
1650506555.7,286046996.1,N
1650506575.5,286046994.2,N
1650506595.3,286046991.2,N
1650506615.2,286046990.4,N
1650506635.9,286046990.9,N
1650506655.7,286046991.2,N
1650506675.6,286046992.9,N
1650506695.4,286046990.1,N
1650506715.2,286046991.8,N
1650506735.1,286046994.0,N
1650506736.0,286046994.0,N
1650506755.8,286046994.5,N
1650506775.7,286046988.6,Y
1650506795.5,286046995.4,P
1650506815.3,286046997.9,P
1650506835.2,286046995.3,P
1650506855.0,286046997.9,N
1650506855.9,286046997.9,N
1650506875.8,286046998.2,N
1650506895.6,286047004.2,N
1650506915.4,286047003.8,N
1650506935.3,286047004.2,N
1650506955.1,286047003.7,N
1650506975.8,286047000.4,N
1650506995.7,286047002.4,N
1650507015.5,286047003.5,N
1650507035.3,286047004.1,N
1650507055.2,286047005.0,N
1650507075.0,286047007.6,N
1650507075.9,286047007.6,N
1650507095.8,286047001.3,N
1650507115.6,286046999.7,N
1650507135.4,286046998.5,N
1650507155.3,286047001.1,N
1650507175.1,286046998.6,N
1650507195.8,286046999.1,N
1650507215.7,286046992.1,N
1650507235.5,286046991.4,N
1650507255.4,286046992.5,N
1650507275.2,286046992.4,N
1650507295.0,286046994.0,N
1650507295.9,286046994.0,N
1650507315.8,286046996.0,N
1650507335.6,286046997.2,N
1650507355.4,286046999.6,N
1650507375.3,286047002.7,N
1650507395.1,286046998.6,N
1650507415.9,286047011.9,N
1650507435.7,286047000.3,N
1650507455.5,286047001.4,N
1650507475.4,286047005.0,N
1650507495.2,286047009.2,N
1650507515.1,286047005.7,N
1650507516.0,286047005.7,N
1650507535.8,286047006.7,N
1650507555.6,286047008.9,N
1650507575.5,286047007.2,N
1650507595.3,286047004.6,N
1650507615.2,286047006.5,N
1650507635.9,286047008.5,N
1650507655.7,286047009.1,N
1650507675.6,286047008.9,N
1650507695.4,286047009.3,N
1650507715.2,286047007.8,N
1650507735.1,286047007.6,N
1650507736.0,286047007.6,N
1650507755.8,286047004.5,N
1650507775.7,286047005.8,N
1650507795.5,286047004.9,N
1650507815.3,286047006.8,N
1650507835.2,286047009.1,N
1650507855.0,286047008.3,N
1650507855.9,286047008.3,N
1650507875.7,286047009.9,N
1650507895.6,286047009.3,N
1650507915.4,286047011.7,Y
1650507935.3,286047003.7,P
1650507955.1,286047001.3,N
1650507975.8,286046999.7,N
1650507995.7,286046997.0,N
1650508015.5,286046999.6,N
1650508035.4,286046996.9,N
1650508055.2,286046995.0,N
1650508075.0,286046996.8,N
1650508075.9,286046996.8,N
1650508095.8,286046999.6,N
1650508115.6,286046998.3,N
1650508135.4,286046998.6,N
1650508155.3,286046998.2,N
1650508175.1,286047001.1,N
1650508195.9,286047001.0,N
1650508215.7,286047005.8,N
1650508235.5,286047004.4,N
1650508255.4,286047007.2,N
1650508275.2,286047004.5,N
1650508295.0,286047010.7,Y
1650508295.9,286047011.9,P
1650508315.8,286047007.8,N
1650508335.6,286047009.2,N
1650508355.5,286047008.6,N
1650508375.3,286047008.2,N
1650508395.1,286047009.5,N
1650508415.9,286047009.9,Y
1650508435.7,286047004.3,P
1650508455.6,286047007.3,P
1650508475.4,286047007.0,P
1650508495.2,286047008.6,Y
1650508515.1,286047004.9,P
1650508535.8,286047008.9,P
1650508555.7,286047006.6,P
1650508575.5,286047006.5,Y
1650508595.4,286047003.9,P
1650508615.2,286047003.5,N
1650508635.1,286047002.0,N
1650508636.0,286047002.0,N
1650508655.8,286047003.7,N
1650508675.7,286047005.7,Y
1650508695.5,286046999.7,P
1650508715.3,286047000.0,N
1650508735.2,286047000.4,N
1650508755.0,286047001.2,N
1650508755.9,286047001.2,N
1650508775.8,286046999.8,N
1650508795.6,286047000.4,N
1650508815.5,286047002.1,N
1650508835.3,286047004.4,Y
1650508855.1,286047000.0,P
1650508875.9,286046999.8,N
1650508895.7,286047002.0,P
1650508915.6,286047001.3,N
1650508935.4,286047003.4,Y
1650508955.2,286047005.7,P
1650508975.1,286047007.5,P
1650508976.0,286047007.5,N
1650508995.8,286047003.2,N
1650509015.7,286047000.9,N
1650509035.5,286047000.5,N
1650509055.3,286047000.9,N
1650509075.2,286047003.4,N
1650509095.0,286047007.1,N
1650509095.9,286047007.1,N
1650509115.7,286047007.9,N
1650509135.6,286047009.5,Y
1650509155.4,286047004.7,P
1650509175.3,286047007.6,P
1650509195.1,286047007.6,P
1650509196.0,286047007.6,Y
1650509215.8,286046998.8,P
1650509235.7,286047000.4,N
1650509255.5,286047001.6,N
1650509275.4,286047002.5,N
1650509295.2,286047001.5,N
1650509315.0,286047000.2,N
1650509315.9,286047000.2,N
1650509335.8,286047001.0,N
1650509355.6,286047002.1,N
1650509375.4,286046999.8,N
1650509395.3,286046998.7,N
1650509415.1,286047001.0,N
1650509435.9,286046998.7,N
1650509455.7,286047000.5,N
1650509475.5,286046999.2,N
1650509495.4,286046997.3,N
1650509515.2,286046996.7,N
1650509535.0,286046997.5,N
1650509535.9,286046997.5,N
1650509555.8,286046995.0,N
1650509575.6,286046995.9,N
1650509595.5,286046995.6,N
1650509615.3,286046999.4,N
1650509635.1,286046999.8,N
1650509655.9,286047003.5,N
1650509675.7,286047004.0,N
1650509695.5,286047000.3,N
1650509715.4,286047002.7,N
1650509735.2,286047000.7,N
1650509755.0,286047002.3,N
1650509756.0,286047002.3,N
1650509775.8,286047002.0,N
1650509795.6,286047002.4,N
1650509815.5,286047001.5,N
1650509835.3,286047003.1,N
1650509855.1,286047001.5,N
1650509875.9,286047002.1,N
1650509895.7,286047002.0,N
1650509915.5,286047002.4,N
1650509935.4,286047002.0,N
1650509955.2,286047003.5,N
1650509975.1,286047003.8,N
1650509976.0,286047003.8,N
1650509995.8,286047002.5,N
